Starlink 36076

operational
NORAD ID: 66588 Int'l Des: 2025-270 Owner: SPXS Country: US Constellation: starlink
LEOCIRCULAR

About Starlink 36076

Description loading...

Live Position

Loading 3D Globe...

Upcoming Passes

Altitude History

Altitude vs Time

uPlot chart will show altitude changes over time

Two-Line Element Set

1 66588U 25270A 25338.66954257 .00256176 00000-0 16177-2 0 9995
2 66588 42.9983 240.6311 0001968 266.0968 93.9676 15.75080180 3084
Epoch: Dec 4, 2025 • Age: 13 hours

Current Status

Altitude 343.4 km
Velocity 7.71 km/s
Sub-Earth Point 18.14°N, 110.64°W
Launch Date Nov 22, 2025
Age 12 days
Type internet

Technical Details

Classification Payload
Mass 575.00 kg
Dry Mass 530.00 kg
Total Mass 575.00 kg
Length 0.30 m
Diameter 4.10 m
Span 29.00 m
Shape Box + pan
Manufacturer SPXS
Bus Type Starlink V2MO
Phase Status In Orbit
Owner/State SPXS/US

Large Constellations

Loading constellations...